Regional Weather Roundup
Issued by NWS Charleston, SC

Current Version | Previous Version | Graphics & Text | Print | Product List | Glossary On
Versions: 1 2 3 4 5 6 7 8 9 10 11 12 13 14 15 16 17 18 19 20 21 22 23 24 25 26 27 28 29 30 31 32 33 34 35 36 37 38 39 40 41 42 43 44 45 46 47 48 49 50
858
ASUS42 KCHS 250527
RWRCHS

REGIONAL WEATHER ROUNDUP
NATIONAL WEATHER SERVICE CHARLESTON SC
1200 AM EST SAT NOV 25 2017

NOTE: "FAIR" INDICATES FEW OR NO CLOUDS BELOW 12,000 FEET WITH NO
SIGNIFICANT WEATHER AND/OR OBSTRUCTIONS TO VISIBILITY.

NOT ALL STATIONS ARE QUALITY CONTROLLED. USE DATA WITH CAUTION...
ESPECIALLY DEWPOINT OBSERVATIONS.

SCZ027-030-031-034>040-042>050-250600-
...SOUTHEAST SOUTH CAROLINA...

CITY           SKY/WX    TMP DP  RH WIND       PRES   REMARKS
N CHARLESTON   CLOUDY    47  43  86 CALM      29.97S
WATERFRONT PRK   N/A     53  40  61 CALM      29.82S
JOHNS ISLAND   CLOUDY    50  43  76 CALM      29.97S
PINOPOLIS        N/A     54  39  58 NE7       29.89S
MONCKS CORNER  FAIR      41  41 100 CALM      29.97S
SUMMERVILLE    FAIR      41  39  93 CALM      29.99R
BEAUFORT MCAS  CLEAR     45  42  89 CALM      29.99R
BEAUFORT ARPT  FAIR      48  41  76 CALM      29.98S
HILTON HEAD IS CLEAR     45  43  93 CALM      29.99S
WALTERBORO     CLEAR     36  34  93 CALM      29.99S
ALLENDALE      FAIR      37  36  93 CALM      29.97S

...SOUTHERN MIDLANDS AND PEE DEE...

CITY           SKY/WX    TMP DP  RH WIND       PRES   REMARKS
GEORGETOWN     FAIR      43  37  81 CALM      29.96F
KINGSTREE      FAIR      34  32  93 W3        29.97F
ORANGEBURG     CLEAR     40  37  89 CALM      29.98S
BARNWELL         N/A     36  34  93 CALM      29.98S
AIKEN          FAIR      34  32  93 CALM      30.00F
MANNING        FAIR      34  34 100 MISG      29.98S
COLUMBIA       CLEAR     39  36  89 CALM      29.97F
SUMTER         CLEAR     39  33  78 CALM      29.95S
FLORENCE       CLEAR     34  31  88 CALM      29.98R
MYRTLE BEACH   MOCLDY    46  36  66 NW5       29.96S
N MYRTLE BEACH MOCLDY    47  35  63 N7        29.94S

$$

GAZ063-065-086>088-099>101-113>116-118-119-134>141-150-250600-
...SOUTHEAST GEORGIA...

CITY           SKY/WX    TMP DP  RH WIND       PRES   REMARKS
SAVANNAH ARPT  CLEAR     43  40  89 CALM      29.99S
HUNTER AAF     CLEAR     43  39  85 CALM      29.96S
FORT STEWART   CLEAR     42  40  91 CALM      29.97S
STATESBORO     CLEAR     38  38 100 CALM      29.99S FOG
SYLVANIA       CLEAR     37  36  98 CALM      29.99S
CLAXTON        FAIR      38  38  99 CALM      30.00S

...CSRA...CENTRAL AND FAR SOUTHEAST GEORGIA...

CITY           SKY/WX    TMP DP  RH WIND       PRES   REMARKS
THOMSON        CLEAR     34  33  95 CALM      30.03S
AUGUSTA-BUSH   CLEAR     35  34  96 CALM      29.98S
AUGUSTA-DANIEL CLEAR     48  38  68 CALM      29.98S
SWAINSBORO     FAIR      37  37 100 CALM      30.00S
VIDALIA        CLEAR     41  39  93 CALM      29.99S
EASTMAN        FAIR      37  32  80 CALM      30.03R
HAZLEHURST     FAIR      42  41  94 CALM      29.99S
ALMA           CLEAR     41  39  93 CALM      29.99S
WAYCROSS       CLEAR     43  41  90 CALM      30.00S
JESUP          FAIR      41  37  87 CALM      30.00S
BAXLEY         FAIR      37  37 100 CALM      29.99S
BRUNSWICK      CLEAR     43  41  93 CALM      30.00S FOG
SAINT SIMONS   CLEAR     47  45  93 CALM      29.99S

$$

SCZ027-028-034-036>038-045-046-048>050-GAZ119-141-250600-
...LAKE AND SUPPLEMENTAL COASTAL OBSERVATIONS...

STATION/POSITION TIME  TEMP    WIND        PRES    WAVE   SWELL
                       AIR SEA DIR/SP/G            HT/PER HT/PER/DIR
                 (UTC) (F)     (DEG/KT/KT) (MB)    (FT/S) (FT/S/D)
WINYAH BAY       0445   47     320/  5     1014.0S
LAKE MURRAY      0450   47        CALM     1014.2F
ACE BASIN NERRS  0445   45        CALM     1015.0S
FORT PULASKI     0500   51 60  360/  2/  3 1015.7
SAPELO ISLAND    0500   47        CALM     1015.0

$$

ANZ835-935-AMZ111-154-330-350-352-354-370-450-454-472-250600-
...C-MAN AND BUOY OBSERVATIONS...

STATION/POSITION TIME  TEMP    WIND        PRES    WAVE   SWELL
                       AIR SEA DIR/SP/G            HT/PER HT/PER/DIR
                 (UTC) (F)     (DEG/KT/KT) (MB)    (FT/S) (FT/S/D)
BUOY 41004       0510   63 74   10/ 14/ 16 1013.1
BUOY 41008       0450   61 65  350/ 10/ 14 1014.9S   4/10   3/100/10
FOLLY BEACH CMAN 0500   53     300/  4/  6 1015.0S
CAPERS NEARSHORE 0508   51 60  360/ 10/ 14 1014.0S
FRIPP NEARSHORE  0508   53 61  340/ 10/ 14 1014.5R


STATION/POSITION TIME  TEMP    WIND        PRES    WAVE   SWELL
                       AIR SEA DIR/SP/G            HT/PER HT/PER/DIR
                 (UTC) (F)     (DEG/KT/KT) (MB)    (FT/S) (FT/S/D)
5E ST. MARYS GA  0500      66                N/A     4/ 9   2/ 80/11
FRYING PAN BUOY  0510   63 72   20/ 16/ 19 1011.7
BUOY 41025       0510   69 70   50/ 12/ 14 1011.5
CAPE LOOKOUT NC  0500          360/ 13/ 16 1012.3F
BUOY 41002       0450   72 76   50/ 16/ 19 1007.6F   9/ 9   7/ 60/ 9
BUOY 41010       NOT AVBL
ST AUGUSTINE FL  0500   58 66  310/  3/  4 1015.4S


$$




USA.gov is the U.S. government's official web portal to all federal, state and local government web resources and services.